Content
SEND FEEDBACK

Daily
Averages
Monthly
Summary
Switzerland

GENEVA, SWITZERLAND


Home > Europe > Switzerland
Elevation: 1364 feet     Latitude: 46 15N     Longitude: 006 08E

WEATHER
 
SELECT A DAY
Number of Records: 305,453;   Date Range: 7/1/96 - 7/22/14
 
SHARE

PRINT THIS DATA

[ ← Previous Day ]
WEATHER ALMANAC - OCTOBER 8, 2013
[ Next Day → ]
[ °C ]   °F
We're sorry. There is no daily almanac available for Geneva, Switzerland on October 8, 2013.
WEATHER BY HOUR - OCTOBER 8, 2013
[ °C ]   °F
Local TimeTemperatureDewpointHumidityBarometerVisibilityWind DirectionWind SpeedGust SpeedPrecipitationEventsConditions
12:20 AM57.2 °F51.8 °F82 %30.21 in6.2 miVariable1.2 mphMostly Cloudy
12:50 AM57.2 °F53.6 °F88 %30.21 in6.2 miNW (310°)2.3 mphMostly Cloudy
1:00 AM56.0 °F52.0 °F81 %30.22 inNW (320°)1.2 mph
1:20 AM57.2 °F53.6 °F88 %30.21 in6.2 miWNW (290°)2.3 mphMostly Cloudy
1:50 AM55.4 °F53.6 °F94 %30.21 in6.2 miCalmMostly Cloudy
2:00 AM56.0 °F53.0 °F86 %30.22 in19.0 miWest (280°)1.2 mphOvercast
2:20 AM57.2 °F53.6 °F88 %30.21 in6.2 miCalmMostly Cloudy
2:50 AM55.4 °F53.6 °F94 %30.21 in6.2 miCalmOvercast
3:00 AM56.0 °F53.0 °F84 %30.22 inCalm
3:50 AM55.4 °F53.6 °F94 %30.21 in6.2 miVariable2.3 mphOvercast
4:00 AM56.0 °F53.0 °F86 %30.21 inWest (260°)2.3 mph
4:20 AM55.4 °F53.6 °F94 %30.21 in6.2 miVariable1.2 mphOvercast
4:50 AM55.4 °F53.6 °F94 %30.21 in6.2 miCalmOvercast
5:20 AM55.4 °F53.6 °F94 %30.21 in6.2 miCalmOvercast
5:50 AM55.4 °F53.6 °F94 %30.21 in6.2 miWNW (300°)3.5 mphMostly Cloudy
6:00 AM56.0 °F52.0 °F83 %30.21 inNW (310°)2.3 mph
6:20 AM55.4 °F53.6 °F94 %30.21 in6.2 miVariable2.3 mphMostly Cloudy
6:50 AM57.2 °F53.6 °F88 %30.21 in6.2 miWNW (300°)1.2 mphMostly Cloudy
7:00 AM56.0 °F52.0 °F82 %30.21 inNW (310°)2.3 mph
7:20 AM57.2 °F53.6 °F88 %30.21 in6.2 miNW (310°)1.2 mphMostly Cloudy
7:50 AM57.2 °F53.6 °F88 %30.21 in6.2 miCalmMostly Cloudy
8:00 AM57.0 °F51.0 °F73 %30.21 in12.0 miNorth (350°)3.5 mphOvercast
8:20 AM57.2 °F53.6 °F88 %30.21 in6.2 miVariable2.3 mphMostly Cloudy
8:50 AM57.2 °F51.8 °F82 %30.21 in6.2 miNNE (30°)4.6 mphOvercast
9:00 AM57.0 °F51.0 °F75 %30.22 inNNE (20°)5.8 mph
9:20 AM57.2 °F51.8 °F82 %30.21 in6.2 miVariable3.5 mphOvercast
9:50 AM59.0 °F53.6 °F82 %30.24 in6.2 miNNE (20°)3.5 mphMostly Cloudy
10:00 AM58.0 °F52.0 °F73 %30.23 inNorth (10°)3.5 mph
10:20 AM59.0 °F53.6 °F82 %30.24 in6.2 miVariable3.5 mphMostly Cloudy
10:50 AM59.0 °F51.8 °F77 %30.24 in6.2 miNE (40°)5.8 mphMostly Cloudy
11:20 AM60.8 °F51.8 °F72 %30.24 in6.2 miNE (40°)9.2 mphMostly Cloudy
11:50 AM62.6 °F53.6 °F72 %30.24 in6.2 miNE (50°)9.2 mphMostly Cloudy
12:00 PM61.0 °F51.0 °F61 %30.22 inNE (40°)8.1 mph
12:20 PM60.8 °F51.8 °F72 %30.24 in6.2 miNE (50°)8.1 mphMostly Cloudy
12:50 PM62.6 °F53.6 °F72 %30.21 in6.2 miNE (40°)6.9 mphMostly Cloudy
1:00 PM61.0 °F50.0 °F59 %30.22 inNNE (30°)6.9 mph
1:20 PM62.6 °F51.8 °F68 %30.21 in6.2 miNNE (30°)5.8 mphMostly Cloudy
1:50 PM62.6 °F51.8 °F68 %30.21 in6.2 miNE (40°)5.8 mphMostly Cloudy
2:00 PM61.0 °F51.0 °F60 %30.20 in12.0 miNNE (30°)4.6 mphMostly Cloudy
2:20 PM62.6 °F51.8 °F68 %30.21 in6.2 miNNE (20°)4.6 mphMostly Cloudy
2:50 PM62.6 °F51.8 °F68 %30.21 in6.2 miNorth (10°)4.6 mphMostly Cloudy
3:00 PM62.0 °F52.0 °F61 %30.20 inNNE (20°)5.8 mph
3:20 PM62.6 °F51.8 °F68 %30.21 in6.2 miNE (40°)5.8 mphMostly Cloudy
3:50 PM62.6 °F51.8 °F68 %30.21 in6.2 miNE (50°)6.9 mphMostly Cloudy
4:00 PM61.0 °F51.0 °F62 %30.20 inNE (50°)6.9 mph
4:20 PM62.6 °F53.6 °F72 %30.21 in6.2 miNE (50°)6.9 mphMostly Cloudy
4:50 PM62.6 °F53.6 °F72 %30.21 in6.2 miNNE (30°)4.6 mphMostly Cloudy
5:20 PM62.6 °F51.8 °F68 %30.21 in6.2 miNNE (30°)5.8 mphMostly Cloudy
5:50 PM60.8 °F51.8 °F72 %30.21 in6.2 miNNE (30°)4.6 mphMostly Cloudy
6:00 PM60.0 °F51.0 °F64 %30.20 inNNE (30°)5.8 mph
6:20 PM60.8 °F51.8 °F72 %30.21 in6.2 miNNE (30°)3.5 mphMostly Cloudy
6:50 PM60.8 °F51.8 °F72 %30.21 in6.2 miVariable2.3 mphMostly Cloudy
7:00 PM60.0 °F50.0 °F62 %30.21 inNNE (20°)3.5 mph
7:20 PM59.0 °F51.8 °F77 %30.21 in6.2 miNNE (30°)3.5 mphMostly Cloudy
7:50 PM59.0 °F51.8 °F77 %30.24 in6.2 miNNE (30°)4.6 mphMostly Cloudy
8:00 PM59.0 °F50.0 °F64 %30.23 in19.0 miNE (40°)3.5 mphMostly Cloudy
8:20 PM59.0 °F51.8 °F77 %30.24 in6.2 miVariable2.3 mphMostly Cloudy
8:50 PM59.0 °F53.6 °F82 %30.24 in6.2 miVariable2.3 mphMostly Cloudy
9:00 PM58.0 °F52.0 °F74 %30.24 inNorth (350°)2.3 mph
9:20 PM59.0 °F53.6 °F82 %30.24 in6.2 miVariable1.2 mphMostly Cloudy
9:50 PM57.2 °F53.6 °F88 %30.24 in6.2 miVariable1.2 mphMostly Cloudy
10:00 PM58.0 °F51.0 °F71 %30.24 inNNW (330°)2.3 mph
10:20 PM59.0 °F53.6 °F82 %30.24 in6.2 miVariable1.2 mphMostly Cloudy
10:50 PM57.2 °F51.8 °F82 %30.24 in6.2 miVariable1.2 mphMostly Cloudy
11:20 PM57.2 °F51.8 °F82 %30.24 in6.2 miCalmMostly Cloudy
11:50 PM57.2 °F53.6 °F88 %30.24 in6.2 miVariable1.2 mphMostly Cloudy
Hourly data recorded from LSGG, located miles away from Geneva, Switzerland







STORIES FROM OUR PARTNERS